Regional Weather Roundup
Issued by NWS Little Rock, AR

Home | Current Version | Previous Version | Graphics & Text | Print | Product List | Glossary On
Versions: 1 2 3 4 5 6 7 8 9 10 11 12 13 14 15 16 17 18 19 20 21 22 23 24 25 26 27 28 29 30 31 32 33 34 35 36 37 38 39 40 41 42 43 44 45 46 47 48 49 50
124
ASUS44 KLZK 120012
RWRLZK

WEATHER ROUNDUP FOR ARKANSAS
NATIONAL WEATHER SERVICE LITTLE ROCK AR
600 PM CST MON DEC 11 2017

NOTE: "FAIR" INDICATES FEW OR NO CLOUDS BELOW 12,000 FEET WITH NO
SIGNIFICANT WEATHER AND/OR OBSTRUCTIONS TO VISIBILITY.

ARZ001-003-010-029-120100-
NORTHWEST ARKANSAS

CITY           SKY/WX    TMP DP  RH WIND       PRES   REMARKS
FAYETTEVILLE   CLEAR     55  18  23 NW10      30.05R
6HR MIN TEMP:  55; 6HR MAX TEMP:  69;

FORT SMITH     CLEAR     64  16  15 NW10      30.03R
6HR MIN TEMP:  64; 6HR MAX TEMP:  74;

HARRISON       CLEAR     56  14  19 NW12G24   30.01R
6HR MIN TEMP:  56; 6HR MAX TEMP:  70;

BENTONVILLE    CLEAR     55  16  21 NW15G23   30.07
6HR MIN TEMP:  55; 6HR MAX TEMP:  65;

ROGERS         CLEAR     55  18  23 NW14G23   30.05R
6HR MIN TEMP:  55; 6HR MAX TEMP:  66;

SILOAM SPGS    CLEAR     55  18  23 NW15G23   30.07R
6HR MIN TEMP:  54; 6HR MAX TEMP:  68;

HIGHFILL       CLEAR     55  16  21 NW12      30.05R
6HR MIN TEMP:  54; 6HR MAX TEMP:  67; 6HR PCP: TRACE;

SPRINGDALE     CLEAR     57  12  17 NW16G23   30.05R
$$

ARZ004-005-016-120100-
NORTH CENTRAL ARKANSAS

CITY           SKY/WX    TMP DP  RH WIND       PRES   REMARKS
BATESVILLE     CLEAR     61  19  19 NW5       29.94R
6HR MIN TEMP:  61; 6HR MAX TEMP:  71;

FLIPPIN        PTCLDY    58  17  20 NW14G22   30.00R
6HR MIN TEMP:  58; 6HR MAX TEMP:  73;

MTN HOME       PTCLDY    56  17  21 N14G24    29.99R
6HR MIN TEMP:  56; 6HR MAX TEMP:  71;

$$

ARZ040-041-120100-
WEST CENTRAL ARKANSAS

CITY           SKY/WX    TMP DP  RH WIND       PRES   REMARKS
MENA           CLEAR     61  27  27 W6        30.03R
MOUNT IDA      CLEAR     64  25  22 CALM      29.98R
6HR MIN TEMP:  64; 6HR MAX TEMP:  77;

$$

ARZ009-017-025-026-028-120100-
NORTHEAST ARKANSAS

CITY           SKY/WX    TMP DP  RH WIND       PRES   REMARKS
JONESBORO      CLEAR     63  27  25 W14       29.90R
6HR MIN TEMP:  59; 6HR MAX TEMP:  68;

NEWPORT        CLEAR     60  23  24 W13       29.92R
6HR MIN TEMP:  60; 6HR MAX TEMP:  69;

WALNUT RIDGE   CLEAR     60  20  21 NW18G25   29.92R
6HR MIN TEMP:  60; 6HR MAX TEMP:  71;

BLYTHEVILLE    CLEAR     56  36  47 SW13      29.87R
6HR MIN TEMP:  56; 6HR MAX TEMP:  65;

$$

ARZ022-023-033-042-044-120100-
CENTRAL ARKANSAS

CITY           SKY/WX    TMP DP  RH WIND       PRES   REMARKS
LITTLE ROCK    PTCLDY    62  22  21 SW8       29.96R
6HR MIN TEMP:  62; 6HR MAX TEMP:  72;

N LITTLE ROCK    N/A     58  28  31 CALM      29.98R
6HR MIN TEMP:  58; 6HR MAX TEMP:  73;

JACKSONVILLE   CLEAR     55  27  34 SW3       29.93R
6HR MIN TEMP:  55; 6HR MAX TEMP:  74;

SEARCY         CLEAR     63  20  19 W6        29.94R
6HR MIN TEMP:  63; 6HR MAX TEMP:  73;

HOT SPRINGS    CLEAR     66  24  20 W6        29.98S
6HR MIN TEMP:  65; 6HR MAX TEMP:  75;

RUSSELLVILLE   CLEAR     65  16  15 NW9       29.96R
6HR MIN TEMP:  60; 6HR MAX TEMP:  72;

CLINTON        FAIR      48  28  46 CALM      29.95R
$$

ARZ036-120100-
EAST ARKANSAS

CITY           SKY/WX    TMP DP  RH WIND       PRES   REMARKS
WEST MEMPHIS   CLEAR     59  34  39 SW9       29.90F
6HR MIN TEMP:  59; 6HR MAX TEMP:  66;

$$

ARZ050-053-066-070-073-120100-
SOUTHWEST ARKANSAS

CITY           SKY/WX    TMP DP  RH WIND       PRES   REMARKS
ARKADELPHIA    FAIR      55  26  32 SW6       30.00S
6HR MIN TEMP:  55; 6HR MAX TEMP:  75;

CAMDEN         CLEAR     55  27  33 CALM      30.00S
TEXARKANA      CLEAR     61  22  22 SW8       30.03R
6HR MIN TEMP:  61; 6HR MAX TEMP:  74;

EL DORADO      CLEAR     57  36  45 SW5       30.02S
6HR MIN TEMP:  57; 6HR MAX TEMP:  73;

DE QUEEN       CLEAR     59  23  25 W6        30.01R
6HR MIN TEMP:  59; 6HR MAX TEMP:  75;

$$

ARZ056-057-069-120100-
SOUTHEAST ARKANSAS

CITY           SKY/WX    TMP DP  RH WIND       PRES   REMARKS
PINE BLUFF     CLEAR     60  28  29 SW8       29.97F
6HR MIN TEMP:  60; 6HR MAX TEMP:  72;

STUTTGART      CLEAR     54  33  45 SW10      29.95S
6HR MIN TEMP:  54; 6HR MAX TEMP:  71;

MONTICELLO     CLEAR     61  28  28 SW6       30.00S
6HR MIN TEMP:  61; 6HR MAX TEMP:  72;


$$






USA.gov is the U.S. government's official web portal to all federal, state and local government web resources and services.